Home   Weather   Cocoa Beach   Past weeks

Flag for USA Past Weather in Cocoa Beach, Florida, USA — Yesterday and Last 2 Weeks

Now
86 °F

Sunny.


Feels Like: 94 °F
Forecast: 72 / 79 °F
Wind: 20 mph from Southwest

Location: Cocoa / Patrick Air Force Base

Current Time: Dec 6, 2016 at 3:12:33 pm

Latest Report: Dec 6, 2016 at 12:58 pm


Visibility: 10 mi

Pressure: 29.85 "Hg

Humidity: 66%

Dew Point: 74 °F

Location of Cocoa BeachLocation

Past Weather in Cocoa Beach — Graph

°F

Cocoa Beach Temperature Yesterday

Maximum temperature yesterday: 81 °F (at 11:58 am)
Minimum temperature yesterday: 69 °F (at 3:58 am)
Average temperature yesterday: 75 °F

High & Low Weather Summary for the Past Weeks

 TemperatureHumidityPressure
High86 °F (Dec 6, 12:58 pm)100% (Nov 30, 1:03 am)30.27 "Hg (Nov 30, 1:03 am)
Low56 °F (Nov 22, 3:58 am)23% (Nov 21, 3:58 pm)29.85 "Hg (Dec 6, 12:58 pm)
Average72 °F77%30.09 "Hg
* Reported Nov 21 12:58 pm — Dec 6 12:58 pm, Cocoa Beach, Weather by CustomWeather, © 2016

Note: Actual official high and low records may vary slightly from our data, if they occured in-between our weather recording intervals... More about our weather records

Advertising

Cocoa Beach Weather History for the Previous 24 Hours

Scroll right to see more
 ConditionsComfort  
Time TempWeatherWind HumidityBarometerVisibility
12:58 pm
Tue, Dec 6
86 °FSunny.20 mph66%29.85 "Hg10 mi
11:58 am84 °FSunny.16 mph70%29.89 "Hg10 mi
10:58 am83 °FSunny.17 mph73%29.92 "Hg10 mi
9:58 am81 °FSunny.16 mph76%29.93 "Hg10 mi
8:58 am78 °FSunny.17 mph87%29.92 "Hg10 mi
7:58 am76 °FSunny.18 mph90%29.92 "Hg10 mi
6:58 am76 °FClear.14 mph91%29.92 "Hg10 mi
5:58 am76 °FPassing clouds.16 mph90%29.91 "Hg10 mi
4:58 am75 °FClear.13 mph91%29.90 "Hg10 mi
3:58 am75 °FClear.15 mph91%29.91 "Hg10 mi
2:58 am75 °FClear.16 mph89%29.90 "Hg10 mi
1:58 am75 °FClear.17 mph89%29.90 "Hg10 mi
12:58 am76 °FClear.15 mph86%29.91 "Hg10 mi
11:58 pm
Mon, Dec 5
76 °FClear.13 mph83%29.93 "Hg10 mi
10:58 pm77 °FClear.14 mph83%29.94 "Hg10 mi
9:58 pm77 °FClear.12 mph83%29.94 "Hg10 mi
8:58 pm75 °FClear.8 mph89%29.94 "Hg10 mi
7:58 pm75 °FClear.10 mph90%29.93 "Hg10 mi
6:58 pm75 °FClear.12 mph92%29.93 "Hg10 mi
5:58 pm75 °FClear.13 mph91%29.92 "Hg10 mi
4:58 pm76 °FSunny.15 mph86%29.91 "Hg10 mi
3:58 pm78 °FSunny.15 mph83%29.90 "Hg10 mi
Weather by CustomWeather, © 2016

See weather overviewHow to use our weather pages